Time,TemperatureF,DewpointF,PressureIn,WindDirection,WindDirectionDegrees,WindSpeedMPH,WindSpeedGustMPH,Humidity,HourlyPrecipIn,Conditions,Clouds,dailyrainin,SoftwareType,DateUTC
2013-03-31 00:12:00,57.2,54.0,30.00,SSE,156,3.0,6.0,88,0.05,,,0.00,weatherlink.com 1.10,2013-03-31 07:12:00,
2013-03-31 00:27:00,57.2,54.0,29.99,South,190,0.0,4.0,88,0.02,,,0.00,weatherlink.com 1.10,2013-03-31 07:27:00,
2013-03-31 00:42:00,57.0,54.0,29.98,South,181,2.0,3.0,89,0.01,,,0.01,weatherlink.com 1.10,2013-03-31 07:42:00,
2013-03-31 00:57:00,56.7,54.0,29.99,SE,137,0.0,4.0,89,0.01,,,0.01,weatherlink.com 1.10,2013-03-31 07:57:00,
2013-03-31 01:12:00,56.3,53.0,29.98,ESE,117,3.0,4.0,89,0.01,,,0.01,weatherlink.com 1.10,2013-03-31 08:12:00,
2013-03-31 01:27:00,56.4,53.0,29.99,SE,137,1.0,6.0,88,0.01,,,0.01,weatherlink.com 1.10,2013-03-31 08:27:00,
2013-03-31 01:42:00,56.1,53.0,29.99,SE,137,0.0,3.0,89,0.00,,,0.01,weatherlink.com 1.10,2013-03-31 08:42:00,
2013-03-31 01:57:00,55.7,53.0,30.00,SSE,149,4.0,4.0,89,0.00,,,0.01,weatherlink.com 1.10,2013-03-31 08:57:00,
2013-03-31 02:12:00,56.2,53.0,30.01,South,185,3.0,7.0,88,0.00,,,0.01,weatherlink.com 1.10,2013-03-31 09:12:00,
2013-03-31 02:27:00,56.6,53.0,30.01,SSW,194,5.0,7.0,86,0.00,,,0.01,weatherlink.com 1.10,2013-03-31 09:27:00,
2013-03-31 02:42:00,56.3,52.0,30.02,South,189,1.0,4.0,86,0.00,,,0.01,weatherlink.com 1.10,2013-03-31 09:42:00,
2013-03-31 02:57:00,55.7,52.0,30.02,South,189,0.0,2.0,88,0.00,,,0.01,weatherlink.com 1.10,2013-03-31 09:57:00,
2013-03-31 03:12:00,55.8,52.0,30.02,SSE,160,3.0,4.0,86,0.00,,,0.01,weatherlink.com 1.10,2013-03-31 10:12:00,
2013-03-31 03:27:00,55.4,51.0,30.02,SSE,161,0.0,2.0,86,0.00,,,0.01,weatherlink.com 1.10,2013-03-31 10:27:00,
2013-03-31 03:42:00,54.6,51.0,30.02,SSE,160,1.0,1.0,88,0.00,,,0.01,weatherlink.com 1.10,2013-03-31 10:42:00,
2013-03-31 03:57:00,53.8,51.0,30.02,SSE,161,1.0,2.0,89,0.00,,,0.01,weatherlink.com 1.10,2013-03-31 10:57:00,
2013-03-31 04:12:00,53.3,51.0,30.02,SSE,161,0.0,2.0,91,0.00,,,0.01,weatherlink.com 1.10,2013-03-31 11:12:00,
2013-03-31 04:27:00,53.2,51.0,30.02,SSE,161,1.0,2.0,91,0.00,,,0.01,weatherlink.com 1.10,2013-03-31 11:27:00,
2013-03-31 04:42:00,52.9,50.0,30.02,South,173,0.0,1.0,91,0.00,,,0.01,weatherlink.com 1.10,2013-03-31 11:42:00,
2013-03-31 04:57:00,52.4,50.0,30.02,South,173,0.0,1.0,91,0.00,,,0.01,weatherlink.com 1.10,2013-03-31 11:57:00,
2013-03-31 05:13:00,52.3,50.0,30.02,South,176,1.0,1.0,92,0.00,,,0.01,weatherlink.com 1.10,2013-03-31 12:13:00,
2013-03-31 05:27:00,52.5,51.0,30.02,South,176,1.0,2.0,93,0.00,,,0.01,weatherlink.com 1.10,2013-03-31 12:27:00,
2013-03-31 05:42:00,52.7,51.0,30.03,South,176,0.0,1.0,93,0.00,,,0.01,weatherlink.com 1.10,2013-03-31 12:42:00,
2013-03-31 05:57:00,53.0,51.0,30.03,South,176,0.0,1.0,93,0.00,,,0.01,weatherlink.com 1.10,2013-03-31 12:57:00,
2013-03-31 06:12:00,52.8,51.0,30.02,South,176,0.0,1.0,93,0.00,,,0.01,weatherlink.com 1.10,2013-03-31 13:12:00,
2013-03-31 06:27:00,52.5,51.0,30.02,South,176,0.0,1.0,93,0.00,,,0.01,weatherlink.com 1.10,2013-03-31 13:27:00,
2013-03-31 06:42:00,52.0,50.0,30.02,South,176,0.0,1.0,94,0.00,,,0.01,weatherlink.com 1.10,2013-03-31 13:42:00,
2013-03-31 06:57:00,51.5,50.0,30.03,South,176,0.0,0.0,93,0.00,,,0.01,weatherlink.com 1.10,2013-03-31 13:57:00,
2013-03-31 07:13:00,51.3,50.0,30.03,South,176,0.0,0.0,94,0.00,,,0.01,weatherlink.com 1.10,2013-03-31 14:13:00,
2013-03-31 07:28:00,51.8,50.0,30.04,South,180,0.0,4.0,94,0.00,,,0.01,weatherlink.com 1.10,2013-03-31 14:28:00,
2013-03-31 07:43:00,52.6,51.0,30.04,South,180,0.0,0.0,95,0.00,,,0.01,weatherlink.com 1.10,2013-03-31 14:43:00,
2013-03-31 07:58:00,54.1,53.0,30.04,South,180,0.0,0.0,95,0.00,,,0.01,weatherlink.com 1.10,2013-03-31 14:58:00,
2013-03-31 08:13:00,55.3,53.0,30.04,South,180,0.0,2.0,91,0.00,,,0.01,weatherlink.com 1.10,2013-03-31 15:13:00,
2013-03-31 08:28:00,56.4,53.0,30.04,South,180,0.0,2.0,88,0.00,,,0.01,weatherlink.com 1.10,2013-03-31 15:28:00,
2013-03-31 08:43:00,57.3,53.0,30.04,South,180,1.0,3.0,86,0.01,,,0.02,weatherlink.com 1.10,2013-03-31 15:43:00,
2013-03-31 08:58:00,58.8,54.0,30.04,ESE,120,1.0,4.0,83,0.01,,,0.02,weatherlink.com 1.10,2013-03-31 15:58:00,
2013-03-31 09:13:00,60.1,54.0,30.04,SE,142,0.0,3.0,80,0.01,,,0.02,weatherlink.com 1.10,2013-03-31 16:13:00,
2013-03-31 09:28:00,60.3,52.0,30.04,East,96,2.0,5.0,75,0.01,,,0.02,weatherlink.com 1.10,2013-03-31 16:28:00,
2013-03-31 09:43:00,60.9,53.0,30.04,ESE,121,3.0,5.0,74,0.00,,,0.02,weatherlink.com 1.10,2013-03-31 16:43:00,
2013-03-31 09:58:00,61.8,52.0,30.04,SSE,155,2.0,7.0,71,0.00,,,0.02,weatherlink.com 1.10,2013-03-31 16:58:00,
2013-03-31 10:13:00,61.6,52.0,30.04,SSE,151,1.0,4.0,71,0.00,,,0.02,weatherlink.com 1.10,2013-03-31 17:13:00,
2013-03-31 10:28:00,62.0,52.0,30.04,SE,140,2.0,4.0,71,0.00,,,0.02,weatherlink.com 1.10,2013-03-31 17:28:00,
2013-03-31 10:43:00,63.8,53.0,30.04,ESE,103,5.0,7.0,68,0.00,,,0.02,weatherlink.com 1.10,2013-03-31 17:43:00,
2013-03-31 10:58:00,63.7,52.0,30.04,SE,140,1.0,4.0,67,0.00,,,0.02,weatherlink.com 1.10,2013-03-31 17:58:00,
2013-03-31 11:13:00,63.5,52.0,30.04,ENE,62,2.0,4.0,67,0.00,,,0.02,weatherlink.com 1.10,2013-03-31 18:13:00,
2013-03-31 11:28:00,65.2,50.0,30.04,South,188,6.0,11.0,59,0.00,,,0.02,weatherlink.com 1.10,2013-03-31 18:28:00,
2013-03-31 11:43:00,66.1,50.0,30.04,SE,144,4.0,9.0,57,0.00,,,0.02,weatherlink.com 1.10,2013-03-31 18:43:00,
2013-03-31 11:58:00,66.8,50.0,30.04,SSW,213,3.0,11.0,55,0.00,,,0.02,weatherlink.com 1.10,2013-03-31 18:58:00,
2013-03-31 12:13:00,66.5,50.0,30.04,South,171,6.0,11.0,56,0.00,,,0.02,weatherlink.com 1.10,2013-03-31 19:13:00,
2013-03-31 12:28:00,66.5,50.0,30.03,SSE,160,4.0,10.0,55,0.00,,,0.02,weatherlink.com 1.10,2013-03-31 19:28:00,
2013-03-31 12:43:00,66.6,50.0,30.03,SSE,162,5.0,7.0,56,0.00,,,0.02,weatherlink.com 1.10,2013-03-31 19:43:00,
2013-03-31 12:58:00,66.6,50.0,30.02,South,170,7.0,11.0,55,0.00,,,0.02,weatherlink.com 1.10,2013-03-31 19:58:00,
2013-03-31 13:13:00,65.8,49.0,30.02,SSE,164,2.0,14.0,56,0.00,,,0.02,weatherlink.com 1.10,2013-03-31 20:13:00,
2013-03-31 13:28:00,65.2,51.0,30.02,SW,215,3.0,7.0,61,0.00,,,0.02,weatherlink.com 1.10,2013-03-31 20:28:00,
2013-03-31 13:43:00,62.5,54.0,30.01,SSW,207,3.0,10.0,73,0.00,,,0.02,weatherlink.com 1.10,2013-03-31 20:43:00,
2013-03-31 13:58:00,65.8,50.0,30.00,SSE,147,6.0,12.0,58,0.00,,,0.02,weatherlink.com 1.10,2013-03-31 20:58:00,
2013-03-31 14:13:00,66.7,50.0,30.00,South,187,11.0,13.0,56,0.00,,,0.02,weatherlink.com 1.10,2013-03-31 21:13:00,
2013-03-31 14:28:00,65.7,50.0,30.00,South,189,6.0,13.0,57,0.00,,,0.02,weatherlink.com 1.10,2013-03-31 21:28:00,
2013-03-31 14:43:00,64.9,50.0,30.00,SSE,167,9.0,16.0,58,0.00,,,0.02,weatherlink.com 1.10,2013-03-31 21:43:00,
2013-03-31 14:58:00,64.4,49.0,30.00,SE,145,4.0,13.0,58,0.00,,,0.02,weatherlink.com 1.10,2013-03-31 21:58:00,
2013-03-31 15:13:00,64.5,50.0,30.00,SSW,196,2.0,11.0,59,0.00,,,0.02,weatherlink.com 1.10,2013-03-31 22:13:00,
2013-03-31 15:28:00,63.9,50.0,30.00,SW,215,7.0,11.0,62,0.00,,,0.02,weatherlink.com 1.10,2013-03-31 22:28:00,
2013-03-31 15:43:00,62.3,50.0,30.00,SSW,194,2.0,9.0,64,0.00,,,0.02,weatherlink.com 1.10,2013-03-31 22:43:00,
2013-03-31 15:58:00,62.4,50.0,29.99,South,188,3.0,10.0,64,0.00,,,0.02,weatherlink.com 1.10,2013-03-31 22:58:00,
2013-03-31 16:13:00,62.5,50.0,29.99,South,169,5.0,7.0,65,0.00,,,0.02,weatherlink.com 1.10,2013-03-31 23:13:00,
2013-03-31 16:28:00,62.5,51.0,29.98,WSW,242,4.0,8.0,66,0.00,,,0.02,weatherlink.com 1.10,2013-03-31 23:28:00,
2013-03-31 16:43:00,64.3,51.0,29.98,WSW,253,6.0,6.0,63,0.00,,,0.02,weatherlink.com 1.10,2013-03-31 23:43:00,
2013-03-31 16:58:00,65.3,50.0,29.98,SSE,161,6.0,10.0,59,0.00,,,0.02,weatherlink.com 1.10,2013-03-31 23:58:00,
2013-03-31 17:13:00,65.2,50.0,29.98,WSW,252,5.0,7.0,59,0.00,,,0.02,weatherlink.com 1.10,2013-04-01 00:13:00,
2013-03-31 17:29:00,64.8,50.0,29.98,SSW,192,4.0,9.0,60,0.00,,,0.02,weatherlink.com 1.10,2013-04-01 00:29:00,
2013-03-31 17:44:00,64.7,49.0,29.98,SSW,193,6.0,9.0,58,0.00,,,0.02,weatherlink.com 1.10,2013-04-01 00:44:00,
2013-03-31 17:59:00,63.6,51.0,29.98,West,266,5.0,8.0,63,0.00,,,0.02,weatherlink.com 1.10,2013-04-01 00:59:00,
2013-03-31 18:13:00,63.1,50.0,29.99,South,186,2.0,12.0,63,0.00,,,0.02,weatherlink.com 1.10,2013-04-01 01:13:00,
2013-03-31 18:28:00,61.8,50.0,29.99,South,180,7.0,9.0,65,0.00,,,0.02,weatherlink.com 1.10,2013-04-01 01:28:00,
2013-03-31 18:44:00,61.2,50.0,29.99,South,187,2.0,8.0,67,0.00,,,0.02,weatherlink.com 1.10,2013-04-01 01:44:00,
2013-03-31 18:59:00,60.7,50.0,29.99,SSW,210,1.0,7.0,68,0.00,,,0.02,weatherlink.com 1.10,2013-04-01 01:59:00,
2013-03-31 19:14:00,60.3,50.0,29.99,SSW,210,2.0,9.0,69,0.00,,,0.02,weatherlink.com 1.10,2013-04-01 02:14:00,
2013-03-31 19:29:00,60.0,51.0,29.99,SW,221,1.0,7.0,71,0.00,,,0.02,weatherlink.com 1.10,2013-04-01 02:29:00,
2013-03-31 19:44:00,59.4,51.0,29.99,SSW,199,4.0,5.0,73,0.00,,,0.02,weatherlink.com 1.10,2013-04-01 02:44:00,
2013-03-31 19:59:00,59.2,51.0,29.99,SSW,192,1.0,4.0,73,0.00,,,0.02,weatherlink.com 1.10,2013-04-01 02:59:00,
2013-03-31 20:14:00,59.1,51.0,30.00,SSW,192,0.0,1.0,74,0.00,,,0.02,weatherlink.com 1.10,2013-04-01 03:14:00,
2013-03-31 20:29:00,59.1,51.0,30.00,SSW,192,0.0,0.0,74,0.00,,,0.02,weatherlink.com 1.10,2013-04-01 03:29:00,
2013-03-31 20:44:00,59.0,51.0,30.01,SSW,192,1.0,1.0,74,0.00,,,0.02,weatherlink.com 1.10,2013-04-01 03:44:00,
2013-03-31 20:59:00,59.0,51.0,30.01,SSW,192,0.0,2.0,74,0.00,,,0.02,weatherlink.com 1.10,2013-04-01 03:59:00,
2013-03-31 21:14:00,58.9,51.0,30.02,South,174,3.0,5.0,75,0.00,,,0.02,weatherlink.com 1.10,2013-04-01 04:14:00,
2013-03-31 21:29:00,58.8,51.0,30.02,South,172,1.0,4.0,75,0.00,,,0.02,weatherlink.com 1.10,2013-04-01 04:29:00,
2013-03-31 21:44:00,58.6,51.0,30.02,SSE,147,2.0,8.0,76,0.00,,,0.02,weatherlink.com 1.10,2013-04-01 04:44:00,
2013-03-31 21:59:00,58.1,51.0,30.03,SSE,150,3.0,8.0,78,0.00,,,0.02,weatherlink.com 1.10,2013-04-01 04:59:00,
2013-03-31 22:14:00,57.4,52.0,30.03,SSW,193,2.0,5.0,81,0.00,,,0.02,weatherlink.com 1.10,2013-04-01 05:14:00,
2013-03-31 22:29:00,56.7,52.0,30.02,SSW,201,1.0,3.0,85,0.00,,,0.02,weatherlink.com 1.10,2013-04-01 05:29:00,
2013-03-31 22:44:00,56.2,53.0,30.03,WSW,252,0.0,4.0,88,0.03,,,0.05,weatherlink.com 1.10,2013-04-01 05:44:00,
2013-03-31 22:59:00,55.8,53.0,30.03,SW,236,2.0,2.0,89,0.03,,,0.05,weatherlink.com 1.10,2013-04-01 05:59:00,
2013-03-31 23:14:00,55.7,53.0,30.03,SSE,148,2.0,6.0,89,0.03,,,0.05,weatherlink.com 1.10,2013-04-01 06:14:00,
2013-03-31 23:29:00,55.7,53.0,30.03,SE,145,0.0,2.0,90,0.03,,,0.05,weatherlink.com 1.10,2013-04-01 06:29:00,
2013-03-31 23:44:00,55.6,53.0,30.03,SE,145,0.0,0.0,90,0.00,,,0.05,weatherlink.com 1.10,2013-04-01 06:44:00,
2013-03-31 23:59:00,55.4,53.0,30.03,SE,146,0.0,1.0,91,0.00,,,0.05,weatherlink.com 1.10,2013-04-01 06:59:00,